KF0DL Weather Reports


Display with metric or nautical units.
time (UTC)temp
F
wind
direction
speed
MPH
gust
MPH
rain 1hr
in
rain 24hr
in
rain mn
in
humidity
%
barometer
mb
20260906205833 79 137 4.0 7.0 0.00 0.46 0.46 65 1018.0
20260906205320 79 112 1.0 6.0 0.00 0.46 0.46 67 1018.3
20260906204826 79 123 1.0 6.0 0.00 0.46 0.46 68 1018.3
20260906204333 78 181 2.0 7.0 0.00 0.46 0.46 69 1018.3
20260906203821 77 109 4.0 7.0 0.00 0.46 0.46 71 1018.7
20260906203326 77 195 1.0 5.0 0.00 0.46 0.46 73 1018.7
20260906202838 76 95 3.0 6.0 0.00 0.46 0.46 74 1018.7
20260906202324 75 104 4.0 7.0 0.00 0.46 0.46 75 1018.3
20260906201831 75 113 5.0 7.0 0.00 0.46 0.46 77 1018.3
20260906201339 74 126 4.0 7.0 0.00 0.46 0.46 78 1018.3
20260906200826 74 49 3.0 7.0 0.00 0.46 0.46 80 1018.5
20260906200332 73 82 3.0 10.0 0.00 0.46 0.46 80 1018.5
20260906195819 73 120 3.0 10.0 0.00 0.46 0.46 81 1019.3
20260906195327 73 109 2.0 8.0 0.00 0.46 0.46 82 1019.3
20260906194835 72 102 6.0 8.0 0.00 0.46 0.46 82 1019.3
20260906194325 72 95 5.0 7.0 0.00 0.46 0.46 83 1019.3
20260906193833 72 121 4.0 6.0 0.00 0.46 0.46 83 1019.7
20260906193319 72 133 3.0 7.0 0.00 0.46 0.46 83 1019.7
20260906192827 72 97 4.0 10.0 0.00 0.46 0.46 83 1019.7
20260906192334 72 113 4.0 10.0 0.00 0.46 0.46 84 1020.1
20260906191821 72 85 4.0 17.0 0.00 0.46 0.46 85 1020.1
20260906191328 73 147 7.0 17.0 0.00 0.46 0.46 86 1020.1
20260906190833 75 124 8.0 12.0 0.05 0.46 0.46 88 1019.9
20260906190321 75 130 3.0 6.0 0.15 0.46 0.46 88 1019.9
20260906185827 75 97 4.0 6.0 0.25 0.46 0.46 88 1019.9
20260906185337 74 167 3.0 7.0 0.35 0.46 0.46 89 1019.7
20260906184824 74 116 5.0 10.0 0.42 0.46 0.46 88 1019.7
20260906184331 73 47 5.0 10.0 0.46 0.46 0.46 87 1019.7
20260906183838 73 56 5.0 9.0 0.46 0.46 0.46 87 1017.6
20260906183323 73 360 0.0 7.0 0.46 0.46 0.46 86 1017.6
20260906182828 73 342 3.0 7.0 0.46 0.46 0.46 86 1017.6
20260906182335 73 360 3.0 6.0 0.46 0.46 0.46 86 1019.0
20260906181822 73 44 2.0 10.0 0.46 0.46 0.46 85 1019.0
20260906181329 73 48 4.0 10.0 0.46 0.46 0.46 83 1019.0
20260906180820 73 356 4.0 7.0 0.42 0.42 0.42 82 1021.2
20260906180327 74 267 1.0 10.0 0.32 0.32 0.32 81 1021.2
20260906175834 74 196 2.0 10.0 0.22 0.22 0.22 80 1021.2
20260906175323 75 193 4.0 9.0 0.11 0.11 0.11 78 1020.1
20260906174830 76 213 3.0 7.0 0.05 0.05 0.05 75 1020.1
20260906174338 76 234 3.0 9.0 0.00 0.00 0.00 73 1020.1
20260906173823 76 267 3.0 9.0 0.00 0.00 0.00 72 1019.7
20260906173328 77 103 4.0 7.0 0.00 0.00 0.00 70 1019.7
20260906172817 77 301 3.0 12.0 0.00 0.00 0.00 69 1019.3
20260906172327 78 294 6.0 13.0 0.00 0.00 0.00 66 1019.3
20260906171837 80 325 3.0 13.0 0.00 0.00 0.00 65 1019.3
20260906171323 81 357 7.0 13.0 0.00 0.00 0.00 62 1019.3
20260906170833 82 271 4.0 6.0 0.00 0.00 0.00 63 1019.1
20260906170321 82 360 3.0 7.0 0.00 0.00 0.00 62 1019.1
20260906165828 83 215 2.0 8.0 0.00 0.00 0.00 61 1019.1
20260906165333 84 313 5.0 8.0 0.00 0.00 0.00 61 1018.9
20260906164820 84 299 3.0 5.0 0.00 0.00 0.00 61 1018.9
20260906164328 84 346 2.0 5.0 0.00 0.00 0.00 60 1018.9
20260906163833 84 66 2.0 3.0 0.00 0.00 0.00 61 1018.6
20260906163324 83 61 2.0 4.0 0.00 0.00 0.00 61 1018.6
20260906162829 83 282 0.0 5.0 0.00 0.00 0.00 62 1018.6
20260906162337 83 335 2.0 5.0 0.00 0.00 0.00 62 1018.0
20260906161824 82 304 2.0 5.0 0.00 0.00 0.00 62 1018.0
20260906161332 82 49 1.0 5.0 0.00 0.00 0.00 64 1018.0
20260906160838 81 72 2.0 6.0 0.00 0.00 0.00 65 1017.6
20260906160325 81 68 3.0 6.0 0.00 0.00 0.00 66 1017.6
20260906155833 80 24 2.0 3.0 0.00 0.00 0.00 68 1017.6
20260906155320 79 47 0.0 3.0 0.00 0.00 0.00 69 1017.6
20260906154940 79 47 1.0 3.0 0.00 0.00 0.00 70 1017.6
20260906154335 79 359 1.0 3.0 0.00 0.00 0.00 72 1017.6
20260906153823 78 354 1.0 2.0 0.00 0.00 0.00 72 1017.9
20260906153330 77 65 1.0 3.0 0.00 0.00 0.00 73 1017.9
20260906152838 77 65 1.0 5.0 0.00 0.00 0.00 74 1017.9
20260906152324 77 66 2.0 5.0 0.00 0.00 0.00 75 1017.9
20260906151830 76 65 1.0 3.0 0.00 0.00 0.00 77 1017.9
20260906151318 76 82 2.0 5.0 0.00 0.00 0.00 79 1017.9
20260906150827 75 86 2.0 5.0 0.00 0.00 0.00 79 1017.9
20260906150335 75 89 2.0 4.0 0.00 0.00 0.00 80 1017.9
20260906145824 74 76 2.0 3.0 0.00 0.00 0.00 81 1017.9
20260906145331 74 313 2.0 3.0 0.00 0.00 0.00 82 1018.4
20260906144837 73 313 1.0 3.0 0.00 0.00 0.00 82 1018.4
20260906144324 73 313 1.0 3.0 0.00 0.00 0.00 82 1018.4
20260906143832 73 313 1.0 3.0 0.00 0.00 0.00 82 1018.4
20260906143338 73 291 2.0 3.0 0.00 0.00 0.00 82 1018.4
20260906142825 73 34 2.0 5.0 0.00 0.00 0.00 82 1018.4
20260906142332 73 302 1.0 5.0 0.00 0.00 0.00 82 1018.7
20260906141838 73 360 3.0 5.0 0.00 0.00 0.00 82 1018.7
20260906141326 73 333 2.0 5.0 0.00 0.00 0.00 82 1018.7
20260906140838 73 237 1.0 5.0 0.00 0.00 0.00 82 1018.2
20260906140325 74 320 1.0 3.0 0.00 0.00 0.00 83 1018.2
20260906135831 74 240 0.0 3.0 0.00 0.00 0.00 85 1018.2
20260906135339 74 240 1.0 3.0 0.00 0.00 0.00 85 1018.4
20260906134826 73 240 2.0 3.0 0.00 0.00 0.00 86 1018.4
20260906134333 73 264 1.0 5.0 0.00 0.00 0.00 87 1018.4
20260906133821 72 264 0.0 5.0 0.00 0.00 0.00 87 1017.9
20260906133327 72 219 2.0 4.0 0.00 0.00 0.00 86 1017.9
20260906132834 72 23 2.0 4.0 0.00 0.00 0.00 86 1017.9
20260906132321 71 79 1.0 4.0 0.00 0.00 0.00 86 1018.0
20260906131829 71 117 2.0 6.0 0.00 0.00 0.00 86 1018.0
20260906131337 71 121 2.0 6.0 0.00 0.00 0.00 86 1018.0
20260906130824 71 123 4.0 6.0 0.00 0.00 0.00 86 1017.7
20260906130331 71 82 4.0 6.0 0.00 0.00 0.00 86 1017.7
20260906125838 71 68 3.0 6.0 0.00 0.00 0.00 86 1017.7
20260906125324 71 42 3.0 5.0 0.00 0.00 0.00 86 1018.2
20260906124830 70 66 2.0 5.0 0.00 0.00 0.00 86 1018.2
20260906124338 71 332 2.0 5.0 0.00 0.00 0.00 86 1018.2
20260906123826 71 322 2.0 7.0 0.00 0.00 0.00 86 1017.9
20260906123336 71 126 1.0 7.0 0.00 0.00 0.00 86 1017.9
20260906122826 71 85 3.0 7.0 0.00 0.00 0.00 85 1017.9
20260906122333 71 175 2.0 7.0 0.00 0.00 0.00 85 1018.2
20260906121820 71 104 3.0 7.0 0.00 0.00 0.00 85 1018.2
20260906121327 71 128 4.0 7.0 0.00 0.00 0.00 85 1018.2
20260906120835 70 160 4.0 7.0 0.00 0.00 0.00 84 1018.0
20260906120322 70 141 3.0 9.0 0.00 0.00 0.00 84 1018.0
20260906115830 70 191 2.0 9.0 0.00 0.00 0.00 84 1018.0
20260906115336 70 116 4.0 7.0 0.00 0.00 0.00 85 1017.8
20260906114827 70 178 3.0 6.0 0.00 0.00 0.00 85 1017.8
20260906114334 70 124 3.0 6.0 0.00 0.00 0.00 85 1017.8
20260906113822 70 126 3.0 7.0 0.00 0.00 0.00 85 1017.6
20260906113328 70 80 4.0 8.0 0.00 0.00 0.00 85 1017.6
20260906112835 70 116 5.0 7.0 0.00 0.00 0.00 85 1017.6
20260906112321 70 100 3.0 7.0 0.00 0.00 0.00 85 1017.8
20260906111829 70 124 3.0 7.0 0.00 0.00 0.00 85 1017.8
20260906111335 70 124 4.0 8.0 0.00 0.00 0.00 85 1017.8
20260906110822 70 136 4.0 8.0 0.00 0.00 0.00 85 1017.6
20260906110330 69 116 3.0 6.0 0.00 0.00 0.00 85 1017.6
20260906105821 69 127 3.0 6.0 0.00 0.00 0.00 85 1017.6
20260906105329 69 95 3.0 6.0 0.00 0.00 0.00 85 1017.7
20260906104835 69 90 2.0 6.0 0.00 0.00 0.00 85 1017.7
20260906104322 69 127 3.0 6.0 0.00 0.00 0.00 85 1017.7
20260906103828 70 106 4.0 6.0 0.00 0.00 0.00 85 1018.6
20260906103335 70 96 4.0 6.0 0.00 0.00 0.00 85 1018.6
20260906102823 70 97 5.0 7.0 0.00 0.00 0.00 85 1018.6
20260906102330 70 120 5.0 7.0 0.00 0.00 0.00 85 1018.4
20260906101836 70 123 4.0 7.0 0.00 0.00 0.00 85 1018.4
20260906101328 70 123 4.0 7.0 0.00 0.00 0.00 85 1018.4
20260906100835 70 88 4.0 7.0 0.00 0.00 0.00 85 1018.4
20260906100322 70 120 5.0 7.0 0.00 0.00 0.00 85 1018.4
20260906095829 70 119 6.0 7.0 0.00 0.00 0.00 85 1018.4
20260906095336 70 93 5.0 7.0 0.00 0.00 0.00 85 1018.5
20260906094824 70 109 6.0 10.0 0.00 0.00 0.00 85 1018.5
20260906094330 70 120 5.0 10.0 0.00 0.00 0.00 85 1018.5
20260906093834 70 88 6.0 9.0 0.00 0.00 0.00 85 1018.4
20260906093322 70 117 6.0 9.0 0.00 0.00 0.00 85 1018.4
20260906092826 70 97 4.0 7.0 0.00 0.00 0.00 85 1018.4
20260906092337 70 90 5.0 9.0 0.00 0.00 0.00 85 1018.3
20260906091825 70 121 5.0 11.0 0.00 0.00 0.00 85 1018.3
20260906091331 70 79 6.0 11.0 0.00 0.00 0.00 85 1018.3
20260906090839 70 112 6.0 10.0 0.00 0.00 0.00 85 1018.4
20260906090327 70 80 6.0 8.0 0.00 0.00 0.00 85 1018.4
20260906085835 70 107 5.0 10.0 0.00 0.00 0.00 85 1018.4
20260906085322 70 133 6.0 10.0 0.00 0.00 0.00 85 1018.5
20260906084828 70 90 6.0 10.0 0.00 0.00 0.00 85 1018.5
20260906084334 70 92 5.0 10.0 0.00 0.00 0.00 85 1018.5
20260906083825 70 95 6.0 11.0 0.00 0.00 0.00 85 1018.4
20260906083333 70 119 7.0 12.0 0.00 0.00 0.00 85 1018.4
20260906082820 70 95 6.0 12.0 0.00 0.00 0.00 85 1018.2
20260906082327 70 32 7.0 11.0 0.00 0.00 0.00 84 1018.2
20260906081834 70 80 7.0 10.0 0.00 0.00 0.00 84 1018.2
20260906081321 70 75 6.0 10.0 0.00 0.00 0.00 84 1018.2
20260906080826 70 96 6.0 11.0 0.00 0.00 0.00 84 1018.2
20260906080334 70 80 7.0 11.0 0.00 0.00 0.00 84 1018.2
20260906075822 70 55 4.0 10.0 0.00 0.00 0.00 84 1018.2
20260906075328 70 88 4.0 11.0 0.00 0.00 0.00 84 1018.3
20260906074838 70 88 6.0 11.0 0.00 0.00 0.00 84 1018.3
20260906074326 70 93 5.0 11.0 0.00 0.00 0.00 84 1018.3
20260906073834 70 86 5.0 9.0 0.00 0.00 0.00 83 1018.4
20260906073339 70 88 7.0 11.0 0.00 0.00 0.00 83 1018.4
20260906072826 70 92 5.0 11.0 0.00 0.00 0.00 83 1018.4
20260906072332 70 59 7.0 11.0 0.00 0.00 0.00 83 1018.3
20260906071838 70 123 6.0 8.0 0.00 0.00 0.00 83 1018.3
20260906071325 70 100 3.0 11.0 0.00 0.00 0.00 83 1018.3
20260906070832 70 85 6.0 11.0 0.00 0.00 0.00 82 1018.5
20260906070323 70 171 7.0 11.0 0.00 0.00 0.00 82 1018.5
20260906065828 71 92 7.0 11.0 0.00 0.00 0.00 82 1018.5
20260906065335 71 110 4.0 11.0 0.00 0.00 0.00 82 1018.4
20260906064823 71 141 6.0 11.0 0.00 0.00 0.00 82 1018.4
20260906064329 71 102 6.0 14.0 0.00 0.00 0.00 81 1018.4
20260906063835 71 107 8.0 14.0 0.00 0.00 0.00 81 1018.9
20260906063322 71 76 7.0 13.0 0.00 0.00 0.00 81 1018.9
20260906062830 71 114 10.0 12.0 0.00 0.00 0.00 81 1018.9
20260906062332 71 95 6.0 12.0 0.00 0.00 0.00 80 1018.4
20260906061820 71 119 8.0 12.0 0.00 0.00 0.00 80 1018.4
20260906061330 71 103 7.0 11.0 0.00 0.00 0.00 80 1018.4
20260906060837 72 100 5.0 10.0 0.00 0.00 0.00 79 1017.7
20260906060327 72 80 4.0 10.0 0.00 0.00 0.00 79 1017.7
20260906055835 72 119 6.0 9.0 0.00 0.00 0.00 79 1017.7
20260906055323 72 102 5.0 9.0 0.00 0.00 0.00 78 1017.8
20260906054828 72 85 6.0 8.0 0.00 0.00 0.00 78 1017.8
20260906054335 72 137 5.0 10.0 0.00 0.00 0.00 78 1017.8
20260906053823 72 103 6.0 10.0 0.00 0.00 0.00 77 1017.8
20260906053329 72 136 5.0 10.0 0.00 0.00 0.00 77 1017.8
20260906052821 73 120 7.0 10.0 0.00 0.00 0.00 77 1017.8
20260906052329 73 112 6.0 12.0 0.00 0.00 0.00 77 1017.7
20260906051835 73 100 7.0 12.0 0.00 0.00 0.00 77 1017.7
20260906051323 73 86 7.0 10.0 0.00 0.00 0.00 76 1017.7
20260906050830 73 93 6.0 10.0 0.00 0.00 0.00 76 1017.8
20260906050336 73 121 6.0 8.0 0.00 0.00 0.00 76 1017.8
20260906045822 73 85 5.0 12.0 0.00 0.00 0.00 76 1017.9
20260906045329 73 93 7.0 12.0 0.00 0.00 0.00 75 1017.9
20260906044837 73 110 7.0 10.0 0.00 0.00 0.00 75 1017.9
20260906044325 73 75 6.0 10.0 0.00 0.00 0.00 75 1017.9
20260906043835 73 148 5.0 8.0 0.00 0.00 0.00 75 1017.8
20260906043323 73 113 4.0 11.0 0.00 0.00 0.00 75 1017.8
20260906042829 73 66 7.0 11.0 0.00 0.00 0.00 75 1017.8
20260906042335 73 79 5.0 11.0 0.00 0.00 0.00 74 1017.7
20260906041820 74 65 5.0 11.0 0.00 0.00 0.00 74 1017.7
20260906041328 74 45 6.0 12.0 0.00 0.00 0.00 73 1017.7
20260906040834 74 96 5.0 12.0 0.00 0.00 0.00 73 1017.9
20260906040322 74 49 5.0 13.0 0.00 0.00 0.00 73 1017.9
20260906035828 74 89 6.0 11.0 0.00 0.00 0.00 72 1017.9
20260906035335 74 89 6.0 11.0 0.00 0.00 0.00 72 1017.9
20260906034826 74 76 3.0 11.0 0.00 0.00 0.00 72 1017.9
20260906034334 74 72 6.0 12.0 0.00 0.00 0.00 72 1017.9
20260906033820 74 34 7.0 12.0 0.00 0.00 0.00 72 1017.6
20260906033328 75 62 5.0 12.0 0.00 0.00 0.00 72 1017.6
20260906032834 75 75 4.0 11.0 0.00 0.00 0.00 71 1017.6
20260906032320 75 83 7.0 11.0 0.00 0.00 0.00 71 1017.4
20260906031828 75 58 7.0 11.0 0.00 0.00 0.00 71 1017.4
20260906031335 75 58 5.0 11.0 0.00 0.00 0.00 71 1017.4
20260906030838 75 80 6.0 12.0 0.00 0.00 0.00 71 1017.5
20260906030330 75 45 7.0 12.0 0.00 0.00 0.00 70 1017.5
20260906025836 76 64 5.0 9.0 0.00 0.00 0.00 70 1017.5
20260906025322 76 42 5.0 8.0 0.00 0.00 0.00 69 1017.3
20260906024828 77 90 5.0 11.0 0.00 0.00 0.00 68 1017.3
20260906024335 77 88 6.0 11.0 0.00 0.00 0.00 66 1017.3
20260906023820 77 58 4.0 10.0 0.00 0.00 0.00 65 1017.2
20260906023326 77 88 7.0 11.0 0.00 0.00 0.00 63 1017.2
20260906022836 77 68 6.0 11.0 0.00 0.00 0.00 62 1017.2
20260906022322 78 80 5.0 11.0 0.00 0.00 0.00 62 1016.9
20260906021826 78 72 5.0 8.0 0.00 0.00 0.00 61 1016.9
20260906021336 78 78 6.0 11.0 0.00 0.00 0.00 61 1016.9
20260906020824 78 130 6.0 11.0 0.00 0.00 0.00 61 1017.0
20260906020331 78 119 5.0 11.0 0.00 0.00 0.00 60 1017.0
20260906015818 79 106 6.0 11.0 0.00 0.00 0.00 60 1016.7
20260906015324 79 93 5.0 11.0 0.00 0.00 0.00 59 1016.7
20260906014831 79 124 7.0 11.0 0.00 0.00 0.00 58 1016.7
20260906014318 80 83 7.0 11.0 0.00 0.00 0.00 57 1016.6
20260906013828 80 119 7.0 12.0 0.00 0.00 0.00 56 1016.6
20260906013334 80 93 9.0 12.0 0.00 0.00 0.00 55 1016.6
20260906012825 81 93 5.0 10.0 0.00 0.00 0.00 52 1016.6
20260906012333 81 120 6.0 9.0 0.00 0.00 0.00 50 1016.6
20260906011840 81 73 5.0 10.0 0.00 0.00 0.00 49 1016.6
20260906011327 81 133 4.0 10.0 0.00 0.00 0.00 48 1016.6
20260906010834 82 80 5.0 10.0 0.00 0.00 0.00 48 1016.4
20260906010321 82 136 8.0 10.0 0.00 0.00 0.00 48 1016.4
20260906005830 82 124 5.0 11.0 0.00 0.00 0.00 47 1016.4
20260906005337 83 89 5.0 11.0 0.00 0.00 0.00 48 1016.2
20260906004823 83 110 7.0 11.0 0.00 0.00 0.00 48 1016.2
20260906004330 84 102 6.0 11.0 0.00 0.00 0.00 47 1016.2
20260906003839 84 128 4.0 11.0 0.00 0.00 0.00 46 1016.4
20260906003327 85 116 7.0 10.0 0.00 0.00 0.00 45 1016.4
20260906002834 85 109 7.0 10.0 0.00 0.00 0.00 45 1016.4
20260906002322 85 131 5.0 10.0 0.00 0.00 0.00 48 1016.4
20260906001829 85 185 5.0 13.0 0.00 0.00 0.00 48 1016.4
20260906001336 86 93 4.0 13.0 0.00 0.00 0.00 50 1016.4
20260906000824 86 158 4.0 14.0 0.00 0.00 0.00 50 1016.6
20260906000333 86 189 8.0 14.0 0.00 0.00 0.00 49 1016.6
20260905235837 87 179 6.0 16.0 0.00 0.00 0.00 48 1016.6
20260905235328 87 123 5.0 16.0 0.00 0.00 0.00 47 1016.8
20260905234845 87 174 4.0 14.0 0.00 0.00 0.00 48 1016.8
20260905234354 88 109 10.0 16.0 0.00 0.00 0.00 47 1016.8
20260905233839 90 97 8.0 16.0 0.00 0.00 0.00 44 1017.5
20260905233321 91 107 5.0 18.0 0.00 0.00 0.00 40 1017.5
20260905232828 91 102 9.0 13.0 0.00 0.00 0.00 37 1017.5
20260905232336 91 102 9.0 18.0 0.00 0.00 0.00 37 1017.0
20260905231823 91 130 7.0 18.0 0.00 0.00 0.00 37 1017.0
20260905231329 91 171 9.0 17.0 0.00 0.00 0.00 36 1017.0
20260905230835 92 136 6.0 17.0 0.00 0.00 0.00 36 1016.6
20260905230322 92 151 11.0 16.0 0.00 0.00 0.00 35 1016.6
20260905225830 92 160 5.0 13.0 0.00 0.00 0.00 36 1016.6
20260905225322 92 99 7.0 15.0 0.00 0.00 0.00 35 1016.6
20260905224828 92 76 11.0 16.0 0.00 0.00 0.00 35 1016.6
20260905224333 93 113 9.0 16.0 0.00 0.00 0.00 34 1016.6
20260905223820 93 95 7.0 12.0 0.00 0.00 0.00 33 1016.0
20260905223328 94 161 4.0 12.0 0.00 0.00 0.00 31 1016.0
20260905222835 94 198 4.0 11.0 0.00 0.00 0.00 31 1016.0
20260905222323 94 102 7.0 11.0 0.00 0.00 0.00 30 1015.5
20260905221829 94 120 2.0 10.0 0.00 0.00 0.00 31 1015.5
20260905221337 94 119 6.0 10.0 0.00 0.00 0.00 30 1015.5
20260905220825 94 96 5.0 12.0 0.00 0.00 0.00 29 1015.9
20260905220331 95 120 4.0 14.0 0.00 0.00 0.00 29 1015.9
20260905215816 95 124 5.0 13.0 0.00 0.00 0.00 29 1016.3
20260905215326 94 224 4.0 13.0 0.00 0.00 0.00 29 1016.3
20260905214834 95 155 6.0 13.0 0.00 0.00 0.00 28 1016.3
20260905214322 95 162 5.0 10.0 0.00 0.00 0.00 29 1016.4
20260905213829 95 110 6.0 10.0 0.00 0.00 0.00 28 1016.4
20260905213337 95 145 5.0 11.0 0.00 0.00 0.00 29 1016.4
20260905212825 95 113 4.0 11.0 0.00 0.00 0.00 28 1016.4
20260905212332 95 147 8.0 10.0 0.00 0.00 0.00 28 1016.3
20260905211823 95 176 6.0 10.0 0.00 0.00 0.00 29 1016.3
20260905211331 95 106 7.0 10.0 0.00 0.00 0.00 28 1016.3
20260905210816 95 169 4.0 9.0 0.00 0.00 0.00 28 1016.2
20260905210326 95 103 3.0 10.0 0.00 0.00 0.00 29 1016.2